Lincoln, CA

1:01 AM PDT on March 28, 2017 (GMT -0700)
Lincoln Regional-Harder

Weather History for KLHM - February, 2013

Change the Weather History Date:

Wednesday, February 20, 2013

  Actual Average (KAUN) Record (KAUN)
Temperature  
Mean Temperature 42 °F -  
Max Temperature 59 °F 58 °F 78 °F (1964)
Min Temperature 26 °F 40 °F 30 °F (1953)
Degree Days  
Heating Degree Days 22    
Moisture  
Dew Point 31 °F    
Average Humidity 76    
Maximum Humidity 100    
Minimum Humidity 31    
Precipitation  
Precipitation 0.00 in - - ()
Sea Level Pressure  
Sea Level Pressure 29.92 in    
Wind  
Wind Speed 4 mph (North)    
Max Wind Speed 18 mph    
Max Gust Speed 24 mph    
Visibility 8 miles    
Events      
Averages and records for this station are not official NWS values.
T = Trace of Precipitation, MM = Missing Value Source: NWS Daily Summary

Daily Weather History Graph

Daily Weather History Graph

Search for Another Location

Airport or City:

Trip Planner

Search our weather history database for the weather conditions in past years. The results will help you decide how hot, cold, wet, or windy it might be!

Date:

Astronomy

Feb. 20, 2013 Rise Set
Actual Time 6:49 AM PST 5:48 PM PST
Civil Twilight 6:22 AM PST 6:15 PM PST
Nautical Twilight 5:51 AM PST 6:47 PM PST
Astronomical Twilight 5:20 AM PST 7:17 PM PST
Moon 1:16 PM PST (2/20) 3:12 AM PST (2/20)
Length of Visible Light 11h 53m
Length of Day
10h 59m
Waxing Gibbous, 77% of the Moon is Illuminated
Feb 20
Waxing Gibbous
Feb 25
Full
Mar 4
Last Quarter
Mar 11
New
Mar 19
First Quarter

Hourly Weather History & Observations

Time (PST) Temp. Windchill Dew Point Humidity Pressure Visibility Wind Dir Wind Speed Gust Speed Precip Events Conditions
12:15 AM 32.0 °F - 32.0 °F 100% 29.81 in 10.0 mi Calm Calm - N/A   Clear
12:35 AM 32.0 °F - 32.0 °F 100% 29.82 in 10.0 mi Calm Calm - N/A   Clear
12:55 AM 32.0 °F - 32.0 °F 100% 29.82 in 2.5 mi Calm Calm - N/A   Clear
1:15 AM 30.2 °F - 30.2 °F 100% 29.82 in 0.5 mi Calm Calm - N/A   Unknown
1:35 AM 30.2 °F - 30.2 °F 100% 29.83 in 0.5 mi Calm Calm - N/A   Unknown
1:55 AM 32.0 °F - 30.2 °F 93% 29.83 in 0.8 mi Calm Calm - N/A   Unknown
2:15 AM 30.2 °F - 30.2 °F 100% 29.83 in 1.2 mi Calm Calm - N/A   Unknown
2:35 AM 28.4 °F - 28.4 °F 100% 29.83 in 0.8 mi Calm Calm - N/A   Unknown
2:55 AM 28.4 °F 23.3 °F 28.4 °F 100% 29.84 in 0.5 mi East 4.6 mph - N/A   Unknown
3:15 AM 26.6 °F 21.2 °F 26.6 °F 100% 29.83 in 5.0 mi East 4.6 mph - N/A   Scattered Clouds
3:35 AM 28.4 °F - 28.4 °F 100% 29.83 in 2.0 mi Calm Calm - N/A   Scattered Clouds
3:55 AM 28.4 °F - 28.4 °F 100% 29.84 in 4.0 mi Calm Calm - N/A   Clear
4:15 AM 28.4 °F - 28.4 °F 100% 29.85 in 5.0 mi Calm Calm - N/A   Mostly Cloudy
4:35 AM 28.4 °F - 28.4 °F 100% 29.85 in 0.2 mi Calm Calm - N/A   Overcast
4:55 AM 28.4 °F - 28.4 °F 100% 29.86 in 0.2 mi Calm Calm - N/A   Overcast
5:15 AM 28.4 °F - 26.6 °F 93% 29.87 in 0.5 mi Calm Calm - N/A   Overcast
5:35 AM 28.4 °F - 26.6 °F 93% 29.88 in 0.5 mi Calm Calm - N/A   Overcast
5:55 AM 26.6 °F - 26.6 °F 100% 29.88 in 0.2 mi Calm Calm - N/A   Overcast
6:15 AM 26.6 °F 22.6 °F 26.6 °F 100% 29.88 in 0.2 mi ENE 3.5 mph - N/A   Overcast
6:35 AM 26.6 °F 22.6 °F 26.6 °F 100% 29.89 in 3.0 mi ENE 3.5 mph - N/A   Scattered Clouds
6:55 AM 26.6 °F - 26.6 °F 100% 29.89 in 10.0 mi Calm Calm - N/A   Clear
7:15 AM 26.6 °F - 26.6 °F 100% 29.90 in 10.0 mi Calm Calm - N/A   Clear
7:35 AM 28.4 °F - 28.4 °F 100% 29.90 in 10.0 mi Calm Calm - N/A   Clear
7:55 AM 30.2 °F - 28.4 °F 93% 29.91 in 10.0 mi Calm Calm - N/A   Clear
8:15 AM 32.0 °F - 32.0 °F 100% 29.92 in 10.0 mi Calm Calm - N/A   Clear
8:35 AM 33.8 °F - 33.8 °F 100% 29.93 in 10.0 mi Calm Calm - N/A   Clear
8:55 AM 37.4 °F 32.8 °F 35.6 °F 93% 29.93 in 10.0 mi North 5.8 mph - N/A   Clear
9:15 AM 41.0 °F 34.7 °F 35.6 °F 81% 29.94 in 10.0 mi North 10.4 mph - N/A   Clear
9:35 AM 42.8 °F 38.0 °F 35.6 °F 76% 29.94 in 10.0 mi NNW 8.1 mph - N/A   Clear
9:55 AM 44.6 °F 38.1 °F 35.6 °F 71% 29.94 in - NNW 13.8 mph - N/A   Clear
10:15 AM 46.4 °F 40.7 °F 35.6 °F 66% 29.95 in 10.0 mi NW 12.7 mph 17.3 mph N/A   Clear
10:35 AM - - - N/A% - - North - - N/A   Unknown
10:55 AM - - - N/A% - - North - - N/A   Unknown
11:15 AM - - - N/A% - - North - - N/A   Unknown
11:35 AM - - - N/A% - - North - - N/A   Unknown
11:55 AM 55.4 °F - 33.8 °F 44% 29.94 in 10.0 mi NNW 17.3 mph - N/A   Clear
12:15 PM 55.4 °F - 32.0 °F 41% 29.94 in 10.0 mi NNW 18.4 mph 23.0 mph N/A   Clear
12:55 PM 57.2 °F - 33.8 °F 41% 29.94 in 10.0 mi NNW 16.1 mph 20.7 mph N/A   Clear
1:15 PM 59.0 °F - 32.0 °F 36% 29.93 in 10.0 mi NNW 17.3 mph - N/A   Clear
1:35 PM 59.0 °F - 30.2 °F 34% 29.93 in 10.0 mi NNW 13.8 mph - N/A   Clear
1:55 PM 59.0 °F - 30.2 °F 34% 29.93 in 10.0 mi NW 17.3 mph 24.2 mph N/A   Clear
2:15 PM 59.0 °F - 30.2 °F 34% 29.92 in 10.0 mi NNW 16.1 mph 21.9 mph N/A   Clear
2:35 PM 59.0 °F - 30.2 °F 34% 29.92 in 10.0 mi NNW 16.1 mph 20.7 mph N/A   Clear
2:55 PM 59.0 °F - 28.4 °F 31% 29.92 in 10.0 mi NNW 13.8 mph 21.9 mph N/A   Clear
3:15 PM 59.0 °F - 30.2 °F 34% 29.92 in 10.0 mi NNW 16.1 mph 20.7 mph N/A   Clear
3:35 PM 59.0 °F - 30.2 °F 34% 29.93 in 10.0 mi NNW 13.8 mph - N/A   Clear
3:55 PM 59.0 °F - 30.2 °F 34% 29.93 in 10.0 mi NNW 13.8 mph - N/A   Clear
4:35 PM 57.2 °F - 30.2 °F 36% 29.93 in 10.0 mi NNW 12.7 mph - N/A   Clear
4:55 PM 55.4 °F - 30.2 °F 38% 29.93 in 10.0 mi NW 8.1 mph - N/A   Clear
5:15 PM 55.4 °F - 32.0 °F 41% 29.93 in 10.0 mi NW 4.6 mph - N/A   Clear
5:35 PM 51.8 °F - 32.0 °F 47% 29.94 in 10.0 mi NW 3.5 mph - N/A   Clear
5:55 PM 51.8 °F - 32.0 °F 47% 29.95 in 10.0 mi Calm Calm - N/A   Clear
6:15 PM 51.8 °F - 30.2 °F 44% 29.95 in 10.0 mi Calm Calm - N/A   Clear
7:35 PM 46.4 °F 45.2 °F 32.0 °F 57% 29.97 in 10.0 mi West 3.5 mph - N/A   Clear
7:55 PM 44.6 °F - 32.0 °F 61% 29.97 in 10.0 mi Calm Calm - N/A   Clear
8:15 PM 42.8 °F 41.1 °F 32.0 °F 66% 29.98 in 10.0 mi West 3.5 mph - N/A   Clear
8:35 PM 42.8 °F - 32.0 °F 66% 29.98 in 10.0 mi Calm Calm - N/A   Clear
8:55 PM 41.0 °F - 30.2 °F 65% 29.99 in 10.0 mi Calm Calm - N/A   Clear
9:15 PM 39.2 °F - 30.2 °F 70% 29.99 in 10.0 mi Calm Calm - N/A   Clear
9:35 PM 32.0 °F 25.6 °F 30.2 °F 93% 30.00 in 10.0 mi East 6.9 mph - N/A   Clear
9:55 PM 32.0 °F 26.4 °F 32.0 °F 100% 30.01 in 10.0 mi East 5.8 mph - N/A   Clear
10:15 PM 32.0 °F 25.6 °F 32.0 °F 100% 30.01 in 10.0 mi East 6.9 mph - N/A   Clear
10:35 PM 32.0 °F 25.6 °F 32.0 °F 100% 30.01 in 10.0 mi East 6.9 mph - N/A   Clear
10:55 PM 33.8 °F - 32.0 °F 93% 30.01 in 10.0 mi Calm Calm - N/A   Clear
11:15 PM 33.8 °F - 30.2 °F 87% 30.01 in 10.0 mi Calm Calm - N/A   Clear
11:35 PM 33.8 °F 29.6 °F 32.0 °F 93% 30.01 in 10.0 mi East 4.6 mph - N/A   Clear
11:55 PM 33.8 °F 29.6 °F 32.0 °F 93% 30.01 in 10.0 mi SE 4.6 mph - N/A   Clear